Weather Roundup
Issued by NWS Springfield, MO

Home | Current Version | Previous Version | Text Only | Print | Product List | Glossary On
Versions: 1 2 3 4 5 6 7 8 9 10 11 12 13 14 15 16 17 18 19 20 21 22 23 24 25 26 27 28 29 30 31 32 33 34 35 36 37 38 39 40 41 42 43 44 45 46 47 48 49 50
000
NZUS99 KSGF 270757
HRRSGF

HOURLY WEATHER
NATIONAL WEATHER SERVICE SPRINGFIELD MO
300 AM CDT TUE JUN 27 2017

......SGF CWA......

CITY           SKY/WX    TMP DP  RH WIND       PRES   REMARKS
SPRINGFIELD    CLOUDY    61  60  97 SE6       30.12F
JOPLIN         CLOUDY    64  63  96 NE3       30.09F
WEST PLAINS    CLOUDY    61  59  93 SW3       30.15R
ROLLA          CLEAR     56  55  97 CALM      30.14F

......SURROUNDING SGF CWA......

CITY           SKY/WX    TMP DP  RH WIND       PRES   REMARKS
CHANUTE        CLOUDY    64  62  93 CALM      30.10S
PARSONS        LGT RAIN  65  63  93 CALM      30.11R
COFFEYVILLE    CLOUDY    65  63  93 NE3       30.09R
EMPORIA        MOCLDY    62  61  96 E5        30.10F
HARRISON AR    CLOUDY    61  59  93 CALM      30.14F

......KANSAS AND MISSOURI......

CITY           SKY/WX    TMP DP  RH WIND       PRES   REMARKS
KANSAS CTY INT CLEAR     58  56  93 SE6       30.14F
SEDALIA        PTCLDY    59  59 100 CALM      30.15F FOG
ST JOSEPH      CLOUDY    54  54 100 CALM      30.14F FOG
ST LOUIS       CLEAR     60  55  83 W5        30.14S
WICHITA        MOCLDY    67  66  97 E10       30.06F
TOPEKA         CLEAR     58  58 100 E3        30.13F
OLATHE         CLEAR     58  57  97 E6        30.14S

......TENNESSEE......

CITY           SKY/WX    TMP DP  RH WIND       PRES   REMARKS
MEMPHIS        NOT AVBL
NASHVILLE      PTCLDY    66  55  67 CALM      30.09F

......ARKANSAS.......

CITY           SKY/WX    TMP DP  RH WIND       PRES   REMARKS
FAYETTEVILLE   CLOUDY    65  62  90 NE5       30.12R
FT SMITH       CLEAR     66  60  81 E3        30.07S
LITTLE ROCK    MOCLDY    65  64  97 NE5       30.07S

......OKLAHOMA.......

CITY           SKY/WX    TMP DP  RH WIND       PRES   REMARKS
TULSA          MOCLDY    73  63  70 S5        30.05R
PONCA CITY     CLOUDY    66  63  90 CALM      30.05F
MCALESTER      PTCLDY    65  61  87 CALM      30.08R
OKLAHOMA CITY  MOCLDY    67  62  84 SE8       30.06S

......IOWA............

CITY           SKY/WX    TMP DP  RH WIND       PRES   REMARKS
DES MOINES     NOT AVBL
QUAD CITIES    CLEAR     49  45  86 CALM      30.13S

......ILLINOIS........

CITY           SKY/WX    TMP DP  RH WIND       PRES   REMARKS
QUINCY         PTCLDY    56  54  93 N5        30.14R
CHICAGO        CLEAR     53  46  77 W5        30.10R




USA.gov is the U.S. government's official web portal to all federal, state and local government web resources and services.